Dewpoint
64 65 69 70 70 69 69 68 67 67 67 66 66 66 66 67 67 67 67 67 67 65 65 64 63 63 64 67 66 66 66 66 66 66 65 64 63 64 66 66 63 61 61
61 63 68 69 70 68 69 68 67 67 67 66 65 65 67 68 67 66 68 68 66 65 64 64 62 63 64 66 66 65 66 65 65 64 62 62 63 62 64 66 64 62 62
62 64 66 69 69 69 68 67 68 66 66 65 65 65 67 68 69 68 68 67 65 65 64 64 63 63 63 66 66 65 64 66 65 64 64 59 60 61 61 65 65 63 62
62 65 66 68 69 69 69 68 69 67 66 65 65 65 67 67 67 69 68 67 66 65 64 64 63 62 64 65 66 64 64 64 64 64 64 56 57 60 61 63 65 64 61
63 67 67 68 68 68 69 69 69 68 66 66 68 69 69 70 69 68 68 67 66 65 65 64 62 63 64 64 63 63 64 63 63 64 61 58 57 60 59 61 62 65 62
65 68 69 68 68 68 68 68 68 69 67 66 67 68 69 70 69 69 69 68 67 66 65 64 62 65 64 64 63 63 63 63 62 64 63 59 60 61 60 60 60 62 63
63 67 69 69 68 68 68 68 68 68 69 67 65 66 68 70 69 69 69 68 67 66 65 64 63 66 64 64 63 63 64 62 61 58 59 62 61 61 61 62 60 60 60
57 58 61 63 67 68 68 68 68 67 68 69 67 65 67 69 69 69 69 68 67 66 65 65 65 65 65 64 63 64 65 62 58 58 60 64 64 62 60 60 60 59 59
44 46 48 53 58 59 61 66 69 68 68 68 68 67 66 67 70 69 68 67 67 66 65 65 65 66 65 65 63 63 65 63 60 56 56 61 64 65 60 61 60 60 59
39 41 40 41 44 48 53 52 59 66 68 68 68 68 67 66 67 69 69 68 68 67 67 66 65 65 65 65 65 62 64 63 59 57 57 58 63 64 63 62 61 61 61
39 38 38 38 38 40 41 45 50 54 62 67 67 67 67 66 64 64 66 67 68 68 68 67 66 66 66 66 66 63 62 59 57 56 55 61 60 62 65 64 63 61 61
35 34 34 35 35 35 34 38 41 45 49 57 65 67 66 65 65 66 66 67 68 68 68 68 67 66 65 59 62 64 60 56 54 55 55 59 60 62 63 61 63 62 62
32 32 32 32 33 32 32 35 35 37 40 44 50 59 66 67 66 66 67 67 66 67 66 66 66 66 63 60 55 57 57 54 52 53 55 60 61 62 63 62 62 63 62
33 32 34 36 36 35 35 32 32 32 33 35 38 43 48 62 67 67 67 67 67 67 66 64 65 65 64 62 60 56 52 51 52 52 53 59 61 62 62 62 64 63 63
34 37 38 39 39 39 37 35 34 32 32 32 34 35 38 41 51 62 66 67 67 67 66 66 65 63 63 63 62 61 58 53 49 50 52 58 60 61 62 62 64 63 61
36 38 39 39 39 40 40 40 37 35 33 33 34 35 35 37 36 41 50 62 67 67 66 66 66 65 64 64 63 61 60 59 55 50 49 54 59 60 62 62 63 63 64
37 39 39 39 39 40 40 41 41 39 36 35 35 35 36 37 38 39 39 40 49 63 67 66 66 66 65 65 64 63 63 61 60 57 52 49 56 59 60 62 62 63 63
39 39 40 41 41 42 41 42 42 41 40 39 38 37 37 37 38 39 40 40 39 40 56 64 65 64 65 65 65 64 64 64 63 61 58 54 51 51 58 60 62 63 64
40 40 41 43 43 44 44 44 43 43 42 41 40 39 39 38 38 39 39 40 39 41 41 43 57 63 63 64 64 65 65 64 64 64 63 61 58 54 52 55 58 59 61
42 43 44 44 44 45 45 44 44 44 44 42 42 41 41 40 40 41 41 41 40 41 42 42 41 46 60 62 63 64 65 65 64 64 64 64 63 59 59 60 60 58 58
43 43 43 44 45 45 44 43 43 43 44 44 44 44 44 43 42 43 42 41 41 41 41 40 40 40 41 53 59 60 62 64 64 64 65 64 64 62 61 61 61 60 58
43 42 43 44 44 44 44 44 44 44 44 44 45 45 45 45 45 45 44 43 43 41 41 41 41 41 41 42 48 56 54 57 62 63 64 63 63 63 62 62 61 61 60
42 41 41 41 42 42 43 43 43 43 43 43 44 45 45 44 45 46 46 46 45 44 43 44 43 43 43 43 43 49 50 51 52 59 61 62 61 62 62 62 61 61 61
40 40 39 38 39 38 39 40 41 41 41 42 43 45 45 44 45 47 48 47 47 47 46 46 45 45 45 45 45 44 49 54 52 51 55 58 61 61 61 62 61 61 61
39 39 38 37 35 35 42 44 43 42 42 43 43 44 44 44 46 47 47 49 48 48 48 48 47 47 46 45 46 46 46 48 52 53 52 53 55 56 57 59 60 61 61
37 37 36 33 32 42 44 43 43 43 42 43 43 44 44 45 46 47 49 50 49 48 48 47 47 47 47 46 46 45 46 47 49 52 53 53 53 53 55 56 57 57 58
Wind_Speed
6 8 6 5 5 4 6 6 4 4 3 3 4 5 5 4 3 3 3 5 6 8 8 8 8 9 8 11 13 13 13 14 13 13 13 12 11 11 13 12 13 15 14
4 2 10 5 6 5 4 5 4 3 3 2 3 4 3 2 3 2 2 4 6 7 7 8 8 8 9 10 11 11 10 10 10 11 11 12 10 10 12 14 14 14 13
3 4 8 9 8 7 4 4 4 3 3 2 2 2 1 1 2 2 1 6 6 7 7 7 8 8 8 8 9 9 9 7 4 2 6 5 9 9 9 10 9 13 13
5 4 2 12 9 9 7 6 6 5 4 2 1 0 1 3 3 2 4 7 7 7 7 8 8 7 9 8 7 7 6 5 0 5 10 8 9 7 8 8 10 11 13
3 4 1 12 9 7 7 6 5 5 5 4 2 2 6 5 9 7 5 7 7 7 8 9 8 7 6 4 4 4 4 2 3 6 6 4 6 7 5 6 7 11 11
9 5 8 10 7 4 5 5 3 6 4 3 3 2 5 5 3 3 9 9 8 7 7 8 6 7 5 3 1 3 3 3 7 6 0 1 8 8 5 5 7 7 7
13 14 12 8 4 2 2 3 3 5 6 4 4 3 3 3 2 7 9 7 6 6 7 7 6 5 3 2 1 4 3 4 8 7 2 8 6 6 4 6 6 4 5
12 13 12 14 13 11 7 4 1 1 6 5 4 4 3 1 2 6 7 7 7 7 7 7 7 6 4 3 2 4 5 6 7 3 3 7 6 6 6 4 3 3 3
12 12 11 11 10 10 10 9 8 5 3 5 6 5 5 4 5 7 9 9 8 9 8 8 8 8 7 6 4 4 6 7 10 6 6 8 12 7 8 7 4 4 3
10 9 8 8 8 9 7 9 8 7 6 6 6 7 7 7 7 8 9 11 11 10 10 10 10 10 9 9 7 5 8 8 10 9 7 4 7 3 8 7 6 6 5
7 8 7 7 5 3 2 4 5 4 6 6 8 11 9 11 11 12 14 9 12 11 12 12 12 11 11 10 9 8 7 10 13 8 7 10 5 6 9 8 7 8 7
6 6 8 7 8 7 7 6 7 6 5 5 7 10 11 11 10 10 5 12 11 11 12 13 13 12 11 12 14 14 11 14 12 9 9 11 7 9 11 9 9 9 9
6 6 8 8 9 8 8 7 7 6 7 7 7 7 8 8 8 9 8 9 11 16 14 16 15 13 15 14 13 14 14 15 12 9 9 13 10 12 13 13 13 12 12
8 8 9 10 9 10 9 9 9 9 8 10 9 9 9 7 8 10 9 10 11 11 14 13 13 16 16 15 16 14 14 13 11 9 10 17 15 15 15 15 15 14 14
7 8 8 9 9 9 10 9 10 11 10 11 10 11 11 12 12 11 11 11 11 11 13 13 13 14 14 14 16 14 16 15 15 11 11 18 17 17 17 18 17 17 17
6 7 8 8 8 9 9 9 10 11 12 12 12 12 12 12 13 13 13 11 11 12 14 13 14 14 15 14 15 15 14 15 16 14 12 12 19 19 19 20 19 19 19
7 7 7 9 8 10 11 10 10 10 11 12 13 14 14 13 12 13 13 14 13 13 13 16 16 14 14 13 16 16 15 15 16 16 15 13 11 19 20 21 21 21 20
6 7 8 8 10 10 11 11 11 12 12 13 13 14 15 15 15 13 13 14 14 15 11 10 12 17 15 14 15 16 14 15 15 14 14 14 13 13 19 22 20 21 21
7 8 8 9 9 10 11 12 13 14 14 14 14 14 17 17 17 16 14 14 15 13 14 14 13 13 15 17 17 16 15 15 15 15 13 14 13 14 10 11 23 23 22
7 7 8 8 9 10 10 10 11 12 12 13 13 14 17 16 18 17 15 17 16 14 14 15 17 16 15 15 16 16 16 15 14 14 14 12 13 11 6 4 5 12 23
6 6 7 8 8 9 10 11 11 11 13 13 13 15 16 17 19 19 17 18 17 17 17 16 16 16 16 14 15 16 17 17 18 17 15 16 18 17 15 15 16 15 16
6 7 7 8 9 9 9 10 11 11 12 13 14 14 14 16 17 19 19 18 18 18 18 18 17 16 16 14 16 11 11 10 15 17 19 20 20 16 18 19 18 18 18
6 7 8 10 10 10 11 11 11 12 12 13 13 13 13 15 17 17 19 18 18 18 16 16 16 17 16 14 16 12 9 11 11 13 19 16 15 13 14 17 19 20 20
6 7 8 9 10 11 11 12 14 15 15 14 14 14 15 16 15 16 17 17 17 16 17 15 15 15 15 15 14 16 16 16 9 9 8 10 13 13 15 14 17 19 19
7 6 7 9 10 11 11 12 11 11 12 13 12 14 15 14 15 12 13 12 14 14 14 15 16 17 15 15 14 13 15 16 15 15 16 14 11 10 10 11 14 16 18
6 5 7 10 11 11 11 9 9 12 13 13 12 13 13 12 13 13 13 11 12 13 15 15 17 19 18 17 14 14 14 12 13 13 14 16 17 15 13 13 13 12 11
Wind_Direction
67 114 112 152 131 116 102 100 101 108 104 102 101 98 97 97 104 114 108 99 88 79 83 87 89 77 72 74 77 70 70 77 81 83 76 69 70 66 47 71 88 81 81
304 120 138 153 160 151 126 110 109 121 127 126 118 117 122 128 120 140 153 124 100 100 100 104 96 94 81 83 86 86 81 82 89 107 111 92 68 69 54 51 71 87 84
326 292 172 166 165 169 165 167 145 145 146 154 146 131 139 20 67 155 180 133 121 117 114 110 104 99 102 81 88 87 89 95 95 189 219 92 82 71 66 57 77 97 91
321 299 251 162 169 175 183 208 169 163 156 170 170 126 297 278 250 191 167 151 141 132 130 119 117 103 90 92 96 93 88 95 77 295 275 100 97 83 72 72 60 100 95
5 311 127 158 170 175 187 205 212 184 170 181 202 320 318 307 230 222 182 160 147 142 145 143 138 119 115 94 102 112 99 86 246 267 71 8 103 99 91 106 102 73 78
28 346 88 142 156 173 206 220 223 214 186 194 221 250 317 329 313 253 185 151 139 145 161 164 163 143 134 121 84 163 136 212 252 234 276 96 50 118 118 89 82 93 87
42 49 64 67 112 161 231 262 269 206 191 198 224 246 312 353 83 120 136 139 151 169 183 187 186 166 160 166 191 177 178 241 264 231 154 109 106 140 114 137 123 113 112
52 54 48 50 53 51 42 28 4 221 189 204 217 237 260 341 184 152 152 164 176 191 203 205 202 199 205 229 263 213 209 247 268 187 252 128 124 171 161 148 150 133 141
57 56 48 43 42 45 39 28 17 357 301 257 231 231 236 240 220 192 183 187 195 198 205 215 217 216 217 227 234 240 229 246 276 257 238 179 169 202 176 173 186 193 197
74 58 51 41 35 20 19 18 10 357 336 308 271 250 249 251 235 218 205 207 204 205 208 213 223 229 229 237 240 249 234 243 255 245 233 167 140 164 187 185 200 217 221
62 46 29 22 30 7 326 347 343 344 327 294 271 246 243 252 236 221 225 225 204 209 212 217 218 225 232 235 235 239 245 243 236 240 229 149 166 218 204 197 215 228 231
24 17 17 7 360 347 323 341 320 309 310 309 290 290 259 269 274 296 319 187 206 223 227 224 224 224 223 239 215 218 235 246 247 239 238 159 183 223 239 220 219 235 240
358 2 0 352 344 335 330 325 300 305 297 293 291 300 291 282 266 266 267 250 235 219 231 223 222 226 234 234 240 206 218 233 245 236 237 169 189 220 241 231 214 225 239
336 341 343 346 334 328 323 309 303 292 294 291 281 289 279 270 264 257 256 256 256 251 239 240 221 220 222 242 250 237 243 239 243 248 241 181 194 221 234 244 228 215 235
330 334 345 342 342 336 321 311 304 294 289 294 295 277 282 279 270 259 261 252 250 245 248 246 244 253 222 220 243 253 251 247 243 242 247 192 196 213 231 239 248 233 230
317 324 327 332 333 330 325 319 308 301 296 294 286 283 279 284 285 291 279 253 262 257 257 253 249 244 250 238 243 250 243 250 246 249 245 219 201 208 222 235 241 244 241
309 313 315 315 321 319 316 314 307 298 294 287 286 287 285 279 277 281 281 285 272 250 261 261 256 255 247 241 249 252 252 243 252 236 241 245 214 214 217 230 238 243 248
300 304 312 312 311 310 306 301 295 291 288 283 280 278 277 275 276 275 273 274 276 283 258 255 266 255 243 234 233 241 250 255 259 258 246 232 235 243 217 221 231 243 247
298 306 312 316 314 315 311 304 294 285 280 281 282 278 277 277 275 274 272 270 272 274 274 274 253 244 260 241 241 240 237 241 248 260 261 244 242 238 239 225 223 231 239
298 303 305 310 312 319 310 306 303 300 287 283 286 290 292 292 289 284 274 270 266 263 261 262 265 268 252 253 259 242 230 240 243 246 243 235 243 235 219 233 295 248 238
279 289 301 308 312 317 316 316 317 313 309 303 301 303 297 292 290 287 282 275 270 264 263 265 269 269 267 262 255 259 255 240 238 242 237 236 234 226 220 223 229 234 255
290 299 309 313 316 316 309 310 301 298 295 293 290 286 285 287 288 284 279 278 275 271 268 261 257 259 259 262 265 267 273 260 234 230 232 234 233 228 220 225 224 223 228
286 307 314 319 318 314 309 304 295 292 290 294 294 303 299 303 301 299 288 282 280 279 271 272 265 259 260 251 252 244 259 242 257 206 230 227 228 225 215 216 223 231 231
292 304 306 311 312 308 311 305 301 300 296 290 292 290 293 291 295 287 284 279 276 273 273 272 267 261 266 260 257 259 267 276 288 296 218 224 220 221 231 218 220 228 231
287 302 306 310 312 316 316 319 312 296 292 287 293 294 294 292 279 280 283 280 282 273 268 269 273 272 265 256 255 260 254 255 256 256 271 273 264 234 239 240 221 217 224
269 293 313 316 319 325 323 315 306 296 295 296 300 296 294 308 298 283 294 299 287 286 293 288 274 263 260 261 256 252 254 252 251 254 252 255 256 266 269 257 252 244 229